| time (UTC) | temp F | wind direction | speed MPH | gust MPH | rain 1hr in | rain 24hr in | rain mn in | humidity % | barometer mb |
| 20260902191832 | 81 | 139 | 3.0 | 6.0 | 0.00 | 0.00 | 0.00 | 41 | 1014.7 |
| 20260902191329 | 82 | 283 | 1.0 | 4.0 | 0.00 | 0.00 | 0.00 | 39 | 1014.7 |
| 20260902190849 | 82 | 187 | 2.0 | 4.0 | 0.00 | 0.00 | 0.00 | 38 | 1014.8 |
| 20260902184858 | 80 | 145 | 1.0 | 5.0 | 0.00 | 0.00 | 0.00 | 42 | 1014.9 |
| 20260902184333 | 80 | 157 | 0.0 | 6.0 | 0.00 | 0.00 | 0.00 | 44 | 1014.9 |
| 20260902183852 | 80 | 166 | 2.0 | 6.0 | 0.00 | 0.00 | 0.00 | 43 | 1014.9 |
| 20260902181853 | 79 | 166 | 2.0 | 4.0 | 0.00 | 0.00 | 0.00 | 47 | 1015.0 |
| 20260902181331 | 79 | 167 | 2.0 | 4.0 | 0.00 | 0.00 | 0.00 | 48 | 1015.1 |
| 20260902180826 | 78 | 134 | 2.0 | 4.0 | 0.00 | 0.00 | 0.00 | 50 | 1015.0 |
| 20260902180325 | 78 | 157 | 2.0 | 5.0 | 0.00 | 0.00 | 0.00 | 49 | 1014.9 |
| 20260902175825 | 78 | 139 | 2.0 | 5.0 | 0.00 | 0.00 | 0.00 | 50 | 1015.0 |
| 20260902175324 | 77 | 152 | 2.0 | 5.0 | 0.00 | 0.00 | 0.00 | 53 | 1015.0 |
| 20260902174821 | 76 | 123 | 2.0 | 5.0 | 0.00 | 0.00 | 0.00 | 53 | 1015.0 |
| 20260902173337 | 76 | 108 | 0.0 | 2.0 | 0.00 | 0.00 | 0.00 | 55 | 1015.1 |
| 20260902172835 | 75 | 214 | 1.0 | 6.0 | 0.00 | 0.00 | 0.00 | 55 | 1015.1 |
| 20260902172326 | 75 | 167 | 2.0 | 6.0 | 0.00 | 0.00 | 0.00 | 57 | 1015.0 |
| 20260902171825 | 74 | 192 | 2.0 | 4.0 | 0.00 | 0.00 | 0.00 | 59 | 1015.0 |
| 20260902171324 | 74 | 72 | 1.0 | 4.0 | 0.00 | 0.00 | 0.00 | 56 | 1015.1 |
| 20260902170322 | 74 | 131 | 1.0 | 3.0 | 0.00 | 0.00 | 0.00 | 60 | 1014.9 |
| 20260902165822 | 73 | 143 | 1.0 | 3.0 | 0.00 | 0.00 | 0.00 | 61 | 1014.8 |
| 20260902165350 | 73 | 113 | 2.0 | 3.0 | 0.00 | 0.00 | 0.00 | 60 | 1014.8 |
| 20260902164833 | 73 | 192 | 1.0 | 3.0 | 0.00 | 0.00 | 0.00 | 60 | 1014.9 |
| 20260902164354 | 73 | 153 | 1.0 | 3.0 | 0.00 | 0.00 | 0.00 | 61 | 1014.9 |
| 20260902163833 | 73 | 134 | 0.0 | 2.0 | 0.00 | 0.00 | 0.00 | 61 | 1014.9 |
| 20260902162333 | 72 | 155 | 1.0 | 3.0 | 0.00 | 0.00 | 0.00 | 61 | 1014.7 |
| 20260902161853 | 72 | 160 | 1.0 | 3.0 | 0.00 | 0.00 | 0.00 | 62 | 1014.8 |
| 20260902161332 | 71 | 184 | 1.0 | 4.0 | 0.00 | 0.00 | 0.00 | 60 | 1014.8 |
| 20260902160831 | 71 | 146 | 2.0 | 4.0 | 0.00 | 0.00 | 0.00 | 58 | 1014.9 |
| 20260902160326 | 71 | 169 | 2.0 | 4.0 | 0.00 | 0.00 | 0.00 | 56 | 1014.9 |
| 20260902155850 | 71 | 126 | 1.0 | 4.0 | 0.00 | 0.00 | 0.00 | 55 | 1014.8 |
| 20260902155322 | 71 | 171 | 1.0 | 3.0 | 0.00 | 0.00 | 0.00 | 55 | 1014.9 |
| 20260902154843 | 71 | 140 | 1.0 | 3.0 | 0.00 | 0.00 | 0.00 | 54 | 1014.8 |
| 20260902153837 | 71 | 142 | 1.0 | 2.0 | 0.00 | 0.00 | 0.00 | 53 | 1014.8 |
| 20260902153338 | 71 | 131 | 0.0 | 1.0 | 0.00 | 0.00 | 0.00 | 55 | 1014.8 |
| 20260902152837 | 71 | 176 | 0.0 | 0.0 | 0.00 | 0.00 | 0.00 | 55 | 1014.8 |
| 20260902152332 | 71 | 165 | 0.0 | 0.0 | 0.00 | 0.00 | 0.00 | 55 | 1014.8 |
| 20260902151850 | 70 | 139 | 0.0 | 0.0 | 0.00 | 0.00 | 0.00 | 53 | 1014.9 |
| 20260902151344 | 70 | 145 | 0.0 | 2.0 | 0.00 | 0.00 | 0.00 | 53 | 1014.8 |
| 20260902150821 | 70 | 144 | 1.0 | 2.0 | 0.00 | 0.00 | 0.00 | 53 | 1014.8 |
| 20260902150337 | 70 | 113 | 0.0 | 2.0 | 0.00 | 0.00 | 0.00 | 52 | 1014.7 |
| 20260902145835 | 71 | 153 | 0.0 | 0.0 | 0.00 | 0.00 | 0.00 | 51 | 1014.7 |
| 20260902144856 | 69 | 202 | 0.0 | 0.0 | 0.00 | 0.00 | 0.00 | 53 | 1014.6 |
| 20260902144413 | 67 | 188 | 0.0 | 0.0 | 0.00 | 0.00 | 0.00 | 63 | 1014.5 |
| 20260902144330 | 67 | 188 | 0.0 | 0.0 | 0.00 | 0.00 | 0.00 | 63 | 1014.5 |
| 20260902143829 | 67 | 187 | 0.0 | 0.0 | 0.00 | 0.00 | 0.00 | 60 | 1014.5 |
| 20260902143407 | 67 | 187 | 0.0 | 0.0 | 0.00 | 0.00 | 0.00 | 61 | 1014.3 |
| 20260902142842 | 66 | 188 | 0.0 | 0.0 | 0.00 | 0.00 | 0.00 | 62 | 1014.3 |
| 20260902141942 | 63 | 187 | 0.0 | 0.0 | 0.00 | 0.00 | 0.00 | 63 | 1014.1 |
| 20260902140836 | 60 | 187 | 0.0 | 0.0 | 0.00 | 0.00 | 0.00 | 65 | 1014.0 |
| 20260902140328 | 59 | 188 | 0.0 | 0.0 | 0.00 | 0.00 | 0.00 | 67 | 1014.0 |
| 20260902134847 | 59 | 187 | 0.0 | 0.0 | 0.00 | 0.00 | 0.00 | 68 | 1013.9 |
| 20260902134320 | 59 | 187 | 0.0 | 0.0 | 0.00 | 0.00 | 0.00 | 68 | 1013.8 |
| 20260902133837 | 59 | 187 | 0.0 | 0.0 | 0.00 | 0.00 | 0.00 | 69 | 1013.8 |
| 20260902133335 | 59 | 187 | 0.0 | 0.0 | 0.00 | 0.00 | 0.00 | 69 | 1013.8 |
| 20260902132835 | 59 | 188 | 0.0 | 0.0 | 0.00 | 0.00 | 0.00 | 70 | 1013.8 |
| 20260902132333 | 59 | 187 | 0.0 | 0.0 | 0.00 | 0.00 | 0.00 | 72 | 1013.9 |
| 20260902131833 | 58 | 187 | 0.0 | 0.0 | 0.00 | 0.00 | 0.00 | 75 | 1013.9 |
| 20260902131332 | 57 | 187 | 0.0 | 0.0 | 0.00 | 0.00 | 0.00 | 78 | 1013.9 |
| 20260902130830 | 57 | 188 | 0.0 | 0.0 | 0.00 | 0.00 | 0.00 | 79 | 1013.9 |
| 20260902130330 | 57 | 187 | 0.0 | 0.0 | 0.00 | 0.00 | 0.00 | 80 | 1013.9 |
| 20260902125828 | 58 | 187 | 0.0 | 0.0 | 0.00 | 0.00 | 0.00 | 81 | 1014.0 |
| 20260902125346 | 57 | 187 | 0.0 | 0.0 | 0.00 | 0.00 | 0.00 | 83 | 1014.0 |
| 20260902124844 | 57 | 188 | 0.0 | 0.0 | 0.00 | 0.00 | 0.00 | 84 | 1014.0 |
| 20260902124319 | 57 | 187 | 0.0 | 0.0 | 0.00 | 0.00 | 0.00 | 84 | 1014.0 |
| 20260902123838 | 58 | 187 | 0.0 | 0.0 | 0.00 | 0.00 | 0.00 | 85 | 1014.0 |
| 20260902123338 | 58 | 188 | 0.0 | 0.0 | 0.00 | 0.00 | 0.00 | 86 | 1014.1 |
| 20260902122820 | 58 | 187 | 0.0 | 0.0 | 0.00 | 0.00 | 0.00 | 87 | 1014.1 |
| 20260902122340 | 58 | 188 | 0.0 | 0.0 | 0.00 | 0.00 | 0.00 | 88 | 1014.1 |
| 20260902121820 | 58 | 188 | 0.0 | 0.0 | 0.00 | 0.00 | 0.00 | 88 | 1014.2 |
| 20260902121318 | 58 | 188 | 0.0 | 0.0 | 0.00 | 0.00 | 0.00 | 88 | 1014.2 |
| 20260902120837 | 58 | 188 | 0.0 | 0.0 | 0.00 | 0.00 | 0.00 | 87 | 1014.1 |
| 20260902120338 | 58 | 188 | 0.0 | 0.0 | 0.00 | 0.00 | 0.00 | 87 | 1014.2 |
| 20260902115834 | 58 | 188 | 0.0 | 0.0 | 0.00 | 0.00 | 0.00 | 87 | 1014.2 |
| 20260902115333 | 58 | 187 | 0.0 | 0.0 | 0.00 | 0.00 | 0.00 | 87 | 1014.2 |
| 20260902114830 | 58 | 187 | 0.0 | 0.0 | 0.00 | 0.00 | 0.00 | 86 | 1014.1 |
| 20260902114356 | 59 | 188 | 0.0 | 0.0 | 0.00 | 0.00 | 0.00 | 86 | 1014.1 |
| 20260902113833 | 59 | 187 | 0.0 | 0.0 | 0.00 | 0.00 | 0.00 | 86 | 1014.0 |
| 20260902113331 | 59 | 188 | 0.0 | 0.0 | 0.00 | 0.00 | 0.00 | 86 | 1014.1 |
| 20260902112852 | 59 | 188 | 0.0 | 0.0 | 0.00 | 0.00 | 0.00 | 86 | 1014.1 |
| 20260902112327 | 59 | 187 | 0.0 | 0.0 | 0.00 | 0.00 | 0.00 | 85 | 1014.2 |
| 20260902111833 | 59 | 187 | 0.0 | 0.0 | 0.00 | 0.00 | 0.00 | 86 | 1014.2 |
| 20260902111334 | 59 | 187 | 0.0 | 0.0 | 0.00 | 0.00 | 0.00 | 85 | 1014.2 |
| 20260902110854 | 59 | 188 | 0.0 | 0.0 | 0.00 | 0.00 | 0.00 | 84 | 1014.2 |
| 20260902110333 | 60 | 188 | 0.0 | 0.0 | 0.00 | 0.00 | 0.00 | 84 | 1014.2 |
| 20260902105852 | 60 | 188 | 0.0 | 0.0 | 0.00 | 0.00 | 0.00 | 84 | 1014.2 |
| 20260902105331 | 60 | 187 | 0.0 | 0.0 | 0.00 | 0.00 | 0.00 | 84 | 1014.2 |
| 20260902104828 | 60 | 187 | 0.0 | 0.0 | 0.00 | 0.00 | 0.00 | 84 | 1014.2 |
| 20260902104330 | 60 | 188 | 0.0 | 0.0 | 0.00 | 0.00 | 0.00 | 84 | 1014.2 |
| 20260902103829 | 60 | 187 | 0.0 | 0.0 | 0.00 | 0.00 | 0.00 | 84 | 1014.2 |
| 20260902103331 | 60 | 188 | 0.0 | 0.0 | 0.00 | 0.00 | 0.00 | 84 | 1014.2 |
| 20260902102833 | 60 | 187 | 0.0 | 0.0 | 0.00 | 0.00 | 0.00 | 85 | 1014.2 |
| 20260902102329 | 60 | 188 | 0.0 | 0.0 | 0.00 | 0.00 | 0.00 | 85 | 1014.3 |
| 20260902101826 | 60 | 187 | 0.0 | 0.0 | 0.00 | 0.00 | 0.00 | 86 | 1014.4 |
| 20260902101325 | 60 | 187 | 0.0 | 0.0 | 0.00 | 0.00 | 0.00 | 86 | 1014.4 |
| 20260902100843 | 60 | 187 | 0.0 | 0.0 | 0.00 | 0.00 | 0.00 | 86 | 1014.5 |
| 20260902100320 | 60 | 187 | 0.0 | 0.0 | 0.00 | 0.00 | 0.00 | 87 | 1014.5 |
| 20260902095822 | 60 | 188 | 0.0 | 0.0 | 0.00 | 0.00 | 0.00 | 87 | 1014.6 |
| 20260902095319 | 60 | 188 | 0.0 | 0.0 | 0.00 | 0.00 | 0.00 | 87 | 1014.6 |
| 20260902094858 | 60 | 188 | 0.0 | 0.0 | 0.00 | 0.00 | 0.00 | 86 | 1014.5 |
| 20260902094322 | 60 | 188 | 0.0 | 0.0 | 0.00 | 0.00 | 0.00 | 86 | 1014.5 |
| 20260902093820 | 60 | 188 | 0.0 | 0.0 | 0.00 | 0.00 | 0.00 | 86 | 1014.5 |
| 20260902093338 | 60 | 188 | 0.0 | 0.0 | 0.00 | 0.00 | 0.00 | 86 | 1014.4 |
| 20260902092820 | 60 | 187 | 0.0 | 0.0 | 0.00 | 0.00 | 0.00 | 86 | 1014.3 |
| 20260902092341 | 60 | 188 | 0.0 | 0.0 | 0.00 | 0.00 | 0.00 | 86 | 1014.3 |
| 20260902091819 | 60 | 187 | 0.0 | 0.0 | 0.00 | 0.00 | 0.00 | 86 | 1014.4 |
| 20260902091332 | 60 | 188 | 0.0 | 0.0 | 0.00 | 0.00 | 0.00 | 85 | 1014.3 |
| 20260902090831 | 60 | 187 | 0.0 | 0.0 | 0.00 | 0.00 | 0.00 | 85 | 1014.4 |
| 20260902090336 | 60 | 187 | 0.0 | 0.0 | 0.00 | 0.00 | 0.00 | 86 | 1014.3 |
| 20260902085835 | 60 | 187 | 0.0 | 0.0 | 0.00 | 0.00 | 0.00 | 85 | 1014.4 |
| 20260902085329 | 60 | 187 | 0.0 | 0.0 | 0.00 | 0.00 | 0.00 | 85 | 1014.3 |
| 20260902084826 | 61 | 187 | 0.0 | 0.0 | 0.00 | 0.00 | 0.00 | 84 | 1014.4 |
| 20260902084321 | 61 | 188 | 0.0 | 0.0 | 0.00 | 0.00 | 0.00 | 84 | 1014.4 |
| 20260902083819 | 61 | 188 | 0.0 | 0.0 | 0.00 | 0.00 | 0.00 | 84 | 1014.6 |
| 20260902083329 | 61 | 187 | 0.0 | 0.0 | 0.00 | 0.00 | 0.00 | 84 | 1014.6 |
| 20260902082821 | 61 | 188 | 0.0 | 0.0 | 0.00 | 0.00 | 0.00 | 83 | 1014.6 |
| 20260902082321 | 61 | 188 | 0.0 | 0.0 | 0.00 | 0.00 | 0.00 | 83 | 1014.5 |
| 20260902081820 | 61 | 187 | 0.0 | 0.0 | 0.00 | 0.00 | 0.00 | 83 | 1014.5 |
| 20260902081400 | 61 | 188 | 0.0 | 0.0 | 0.00 | 0.00 | 0.00 | 83 | 1014.6 |
| 20260902080836 | 61 | 188 | 0.0 | 0.0 | 0.00 | 0.00 | 0.00 | 84 | 1014.6 |
| 20260902080335 | 61 | 187 | 0.0 | 0.0 | 0.00 | 0.00 | 0.00 | 84 | 1014.6 |
| 20260902075853 | 61 | 188 | 0.0 | 0.0 | 0.00 | 0.00 | 0.00 | 84 | 1014.6 |
| 20260902075330 | 61 | 188 | 0.0 | 0.0 | 0.00 | 0.00 | 0.00 | 84 | 1014.6 |
| 20260902074831 | 61 | 187 | 0.0 | 0.0 | 0.00 | 0.00 | 0.00 | 83 | 1014.6 |
| 20260902074346 | 61 | 188 | 0.0 | 0.0 | 0.00 | 0.00 | 0.00 | 83 | 1014.4 |
| 20260902073843 | 61 | 187 | 0.0 | 0.0 | 0.00 | 0.00 | 0.00 | 83 | 1014.3 |
| 20260902073322 | 61 | 188 | 0.0 | 0.0 | 0.00 | 0.00 | 0.00 | 83 | 1014.4 |
| 20260902072819 | 62 | 187 | 0.0 | 0.0 | 0.00 | 0.00 | 0.00 | 82 | 1014.3 |
| 20260902072321 | 62 | 187 | 0.0 | 0.0 | 0.00 | 0.00 | 0.00 | 82 | 1014.2 |
| 20260902071837 | 62 | 188 | 0.0 | 0.0 | 0.00 | 0.00 | 0.00 | 82 | 1014.2 |
| 20260902071323 | 62 | 187 | 0.0 | 0.0 | 0.00 | 0.00 | 0.00 | 81 | 1014.1 |
| 20260902070844 | 62 | 188 | 0.0 | 0.0 | 0.00 | 0.00 | 0.00 | 81 | 1014.0 |
| 20260902070322 | 62 | 187 | 0.0 | 0.0 | 0.00 | 0.00 | 0.00 | 81 | 1014.1 |
| 20260902065821 | 63 | 187 | 0.0 | 0.0 | 0.00 | 0.00 | 0.00 | 81 | 1014.1 |
| 20260902065400 | 63 | 187 | 0.0 | 0.0 | 0.00 | 0.00 | 0.00 | 81 | 1014.0 |
| 20260902064820 | 63 | 187 | 0.0 | 0.0 | 0.00 | 0.00 | 0.00 | 81 | 1014.0 |
| 20260902064338 | 63 | 188 | 0.0 | 0.0 | 0.00 | 0.00 | 0.00 | 80 | 1014.0 |
| 20260902063837 | 63 | 188 | 0.0 | 0.0 | 0.00 | 0.00 | 0.00 | 80 | 1014.0 |
| 20260902063339 | 64 | 187 | 0.0 | 0.0 | 0.00 | 0.00 | 0.00 | 79 | 1014.0 |
| 20260902062858 | 64 | 187 | 0.0 | 0.0 | 0.00 | 0.00 | 0.00 | 79 | 1013.9 |
| 20260902062319 | 64 | 187 | 0.0 | 0.0 | 0.00 | 0.00 | 0.00 | 78 | 1013.9 |
| 20260902061838 | 64 | 187 | 0.0 | 0.0 | 0.00 | 0.00 | 0.00 | 78 | 1013.9 |
| 20260902061339 | 64 | 188 | 0.0 | 0.0 | 0.00 | 0.00 | 0.00 | 77 | 1014.0 |
| 20260902060838 | 64 | 187 | 0.0 | 0.0 | 0.00 | 0.00 | 0.00 | 77 | 1013.9 |
| 20260902060339 | 65 | 187 | 0.0 | 0.0 | 0.00 | 0.00 | 0.00 | 77 | 1013.9 |
| 20260902055839 | 65 | 188 | 0.0 | 0.0 | 0.00 | 0.00 | 0.00 | 75 | 1014.0 |
| 20260902055340 | 65 | 188 | 0.0 | 0.0 | 0.00 | 0.00 | 0.00 | 75 | 1013.9 |
| 20260902054825 | 65 | 187 | 0.0 | 0.0 | 0.00 | 0.00 | 0.00 | 74 | 1013.8 |
| 20260902054325 | 65 | 188 | 0.0 | 0.0 | 0.00 | 0.00 | 0.00 | 72 | 1013.8 |
| 20260902053847 | 65 | 188 | 0.0 | 0.0 | 0.00 | 0.00 | 0.00 | 71 | 1013.8 |
| 20260902053325 | 65 | 187 | 0.0 | 0.0 | 0.00 | 0.00 | 0.00 | 72 | 1013.7 |
| 20260902052826 | 65 | 188 | 0.0 | 0.0 | 0.00 | 0.00 | 0.00 | 72 | 1013.8 |
| 20260902052325 | 65 | 188 | 0.0 | 0.0 | 0.00 | 0.00 | 0.00 | 72 | 1013.8 |
| 20260902051822 | 66 | 187 | 0.0 | 0.0 | 0.00 | 0.00 | 0.00 | 71 | 1013.8 |
| 20260902051323 | 66 | 187 | 0.0 | 0.0 | 0.00 | 0.00 | 0.00 | 71 | 1013.7 |
| 20260902050821 | 66 | 187 | 0.0 | 0.0 | 0.00 | 0.00 | 0.00 | 71 | 1013.7 |
| 20260902050321 | 66 | 187 | 0.0 | 0.0 | 0.00 | 0.00 | 0.00 | 70 | 1013.7 |
| 20260902045835 | 66 | 188 | 0.0 | 0.0 | 0.00 | 0.00 | 0.00 | 69 | 1013.7 |
| 20260902045333 | 67 | 187 | 0.0 | 0.0 | 0.00 | 0.00 | 0.00 | 68 | 1013.7 |
| 20260902044825 | 67 | 187 | 0.0 | 0.0 | 0.00 | 0.00 | 0.00 | 68 | 1013.7 |
| 20260902044325 | 67 | 187 | 0.0 | 0.0 | 0.00 | 0.00 | 0.00 | 66 | 1013.5 |
| 20260902043322 | 68 | 188 | 0.0 | 0.0 | 0.00 | 0.00 | 0.00 | 64 | 1013.3 |
| 20260902042822 | 68 | 187 | 0.0 | 0.0 | 0.00 | 0.00 | 0.00 | 63 | 1013.2 |
| 20260902042324 | 68 | 259 | 0.0 | 0.0 | 0.00 | 0.00 | 0.00 | 63 | 1013.1 |
| 20260902041824 | 68 | 259 | 0.0 | 0.0 | 0.00 | 0.00 | 0.00 | 63 | 1013.1 |
| 20260902041326 | 68 | 259 | 0.0 | 0.0 | 0.00 | 0.00 | 0.00 | 62 | 1013.1 |
| 20260902040823 | 68 | 259 | 0.0 | 0.0 | 0.00 | 0.00 | 0.00 | 62 | 1013.0 |
| 20260902040323 | 68 | 259 | 0.0 | 0.0 | 0.00 | 0.00 | 0.00 | 63 | 1013.0 |
| 20260902035824 | 68 | 259 | 0.0 | 0.0 | 0.00 | 0.00 | 0.00 | 63 | 1012.9 |
| 20260902035324 | 68 | 259 | 0.0 | 0.0 | 0.00 | 0.00 | 0.00 | 62 | 1012.8 |
| 20260902034323 | 69 | 259 | 0.0 | 0.0 | 0.00 | 0.00 | 0.00 | 61 | 1012.7 |
| 20260902033822 | 70 | 259 | 0.0 | 0.0 | 0.00 | 0.00 | 0.00 | 60 | 1012.6 |
| 20260902033320 | 70 | 259 | 0.0 | 0.0 | 0.00 | 0.00 | 0.00 | 60 | 1012.5 |
| 20260902032824 | 71 | 259 | 0.0 | 0.0 | 0.00 | 0.00 | 0.00 | 59 | 1012.5 |
| 20260902032342 | 71 | 259 | 0.0 | 0.0 | 0.00 | 0.00 | 0.00 | 58 | 1012.4 |
| 20260902031820 | 71 | 259 | 0.0 | 0.0 | 0.00 | 0.00 | 0.00 | 58 | 1012.4 |
| 20260902031319 | 72 | 259 | 0.0 | 0.0 | 0.00 | 0.00 | 0.00 | 57 | 1012.4 |
| 20260902030900 | 72 | 259 | 0.0 | 0.0 | 0.00 | 0.00 | 0.00 | 56 | 1012.4 |
| 20260902030338 | 72 | 259 | 0.0 | 0.0 | 0.00 | 0.00 | 0.00 | 56 | 1012.4 |
| 20260902025839 | 72 | 259 | 0.0 | 0.0 | 0.00 | 0.00 | 0.00 | 56 | 1012.3 |
| 20260902025337 | 73 | 259 | 0.0 | 0.0 | 0.00 | 0.00 | 0.00 | 55 | 1012.2 |
| 20260902024822 | 73 | 259 | 0.0 | 0.0 | 0.00 | 0.00 | 0.00 | 54 | 1012.2 |
| 20260902024320 | 74 | 259 | 0.0 | 0.0 | 0.00 | 0.00 | 0.00 | 53 | 1012.1 |
| 20260902023820 | 74 | 259 | 0.0 | 0.0 | 0.00 | 0.00 | 0.00 | 53 | 1012.0 |
| 20260902023321 | 75 | 259 | 0.0 | 0.0 | 0.00 | 0.00 | 0.00 | 52 | 1012.0 |
| 20260902022822 | 75 | 259 | 0.0 | 0.0 | 0.00 | 0.00 | 0.00 | 51 | 1012.0 |
| 20260902022322 | 76 | 259 | 0.0 | 0.0 | 0.00 | 0.00 | 0.00 | 50 | 1012.0 |
| 20260902021820 | 76 | 259 | 0.0 | 0.0 | 0.00 | 0.00 | 0.00 | 49 | 1011.9 |
| 20260902021320 | 76 | 259 | 0.0 | 0.0 | 0.00 | 0.00 | 0.00 | 47 | 1012.0 |
| 20260902020821 | 77 | 259 | 0.0 | 0.0 | 0.00 | 0.00 | 0.00 | 46 | 1012.0 |
| 20260902020323 | 77 | 262 | 0.0 | 1.0 | 0.00 | 0.00 | 0.00 | 45 | 1012.0 |
| 20260902015823 | 78 | 262 | 0.0 | 1.0 | 0.00 | 0.00 | 0.00 | 44 | 1012.0 |
| 20260902015326 | 78 | 281 | 0.0 | 3.0 | 0.00 | 0.00 | 0.00 | 43 | 1012.0 |
| 20260902014824 | 78 | 240 | 0.0 | 3.0 | 0.00 | 0.00 | 0.00 | 43 | 1012.1 |
| 20260902014323 | 78 | 150 | 0.0 | 2.0 | 0.00 | 0.00 | 0.00 | 44 | 1012.1 |
| 20260902013820 | 79 | 271 | 0.0 | 3.0 | 0.00 | 0.00 | 0.00 | 45 | 1012.1 |
| 20260902013321 | 79 | 275 | 1.0 | 4.0 | 0.00 | 0.00 | 0.00 | 44 | 1012.1 |
| 20260902012823 | 80 | 240 | 1.0 | 5.0 | 0.00 | 0.00 | 0.00 | 43 | 1012.1 |
| 20260902012327 | 81 | 242 | 1.0 | 5.0 | 0.00 | 0.00 | 0.00 | 42 | 1012.2 |
| 20260902011847 | 80 | 285 | 1.0 | 4.0 | 0.00 | 0.00 | 0.00 | 39 | 1012.1 |
| 20260902011348 | 80 | 244 | 1.0 | 4.0 | 0.00 | 0.00 | 0.00 | 41 | 1012.1 |
| 20260902010829 | 80 | 226 | 2.0 | 4.0 | 0.00 | 0.00 | 0.00 | 40 | 1012.1 |
| 20260902010350 | 80 | 238 | 1.0 | 5.0 | 0.00 | 0.00 | 0.00 | 40 | 1012.1 |
| 20260902005834 | 81 | 171 | 2.0 | 5.0 | 0.00 | 0.00 | 0.00 | 42 | 1012.2 |
| 20260902005357 | 82 | 254 | 2.0 | 3.0 | 0.00 | 0.00 | 0.00 | 42 | 1012.2 |
| 20260902004324 | 81 | 269 | 1.0 | 3.0 | 0.00 | 0.00 | 0.00 | 43 | 1012.1 |
| 20260902003821 | 81 | 259 | 1.0 | 4.0 | 0.00 | 0.00 | 0.00 | 44 | 1012.2 |
| 20260902003321 | 81 | 248 | 1.0 | 4.0 | 0.00 | 0.00 | 0.00 | 45 | 1012.2 |
| 20260902002823 | 82 | 276 | 0.0 | 5.0 | 0.00 | 0.00 | 0.00 | 45 | 1012.2 |
| 20260902002321 | 82 | 280 | 2.0 | 6.0 | 0.00 | 0.00 | 0.00 | 45 | 1012.2 |
| 20260902001821 | 82 | 199 | 1.0 | 6.0 | 0.00 | 0.00 | 0.00 | 44 | 1012.2 |
| 20260902001319 | 82 | 294 | 3.0 | 5.0 | 0.00 | 0.00 | 0.00 | 43 | 1012.2 |
| 20260902000857 | 82 | 274 | 1.0 | 8.0 | 0.00 | 0.00 | 0.00 | 44 | 1012.2 |
| 20260902000334 | 82 | 169 | 2.0 | 8.0 | 0.00 | 0.00 | 0.00 | 45 | 1012.2 |
| 20260901235833 | 82 | 274 | 3.0 | 6.0 | 0.00 | 0.00 | 0.00 | 44 | 1012.2 |
| 20260901235332 | 82 | 281 | 2.0 | 6.0 | 0.00 | 0.00 | 0.00 | 42 | 1012.3 |
| 20260901234333 | 82 | 146 | 2.0 | 5.0 | 0.00 | 0.00 | 0.00 | 41 | 1012.3 |
| 20260901233833 | 82 | 198 | 2.0 | 7.0 | 0.00 | 0.00 | 0.00 | 42 | 1012.3 |
| 20260901233319 | 83 | 208 | 4.0 | 7.0 | 0.00 | 0.00 | 0.00 | 41 | 1012.3 |
| 20260901232820 | 83 | 166 | 3.0 | 9.0 | 0.00 | 0.00 | 0.00 | 42 | 1012.3 |
| 20260901232359 | 83 | 244 | 2.0 | 9.0 | 0.00 | 0.00 | 0.00 | 43 | 1012.4 |
| 20260901231838 | 83 | 166 | 2.0 | 5.0 | 0.00 | 0.00 | 0.00 | 44 | 1012.3 |
| 20260901231333 | 84 | 275 | 2.0 | 5.0 | 0.00 | 0.00 | 0.00 | 44 | 1012.3 |
| 20260901230834 | 84 | 268 | 1.0 | 5.0 | 0.00 | 0.00 | 0.00 | 43 | 1012.3 |
| 20260901230332 | 84 | 183 | 3.0 | 6.0 | 0.00 | 0.00 | 0.00 | 44 | 1012.3 |
| 20260901225347 | 84 | 192 | 3.0 | 8.0 | 0.00 | 0.00 | 0.00 | 44 | 1012.4 |
| 20260901223319 | 85 | 237 | 2.0 | 9.0 | 0.00 | 0.00 | 0.00 | 45 | 1012.4 |
| 20260901222839 | 85 | 129 | 4.0 | 7.0 | 0.00 | 0.00 | 0.00 | 44 | 1012.4 |
| 20260901222320 | 86 | 214 | 3.0 | 10.0 | 0.00 | 0.00 | 0.00 | 44 | 1012.4 |
| 20260901221822 | 86 | 208 | 3.0 | 10.0 | 0.00 | 0.00 | 0.00 | 43 | 1012.4 |
| 20260901220819 | 87 | 178 | 3.0 | 6.0 | 0.00 | 0.00 | 0.00 | 41 | 1012.5 |
| 20260901220320 | 87 | 150 | 2.0 | 6.0 | 0.00 | 0.00 | 0.00 | 38 | 1012.5 |
| 20260901215820 | 87 | 157 | 2.0 | 6.0 | 0.00 | 0.00 | 0.00 | 38 | 1012.5 |
| 20260901215323 | 87 | 212 | 2.0 | 6.0 | 0.00 | 0.00 | 0.00 | 34 | 1012.5 |
| 20260901214825 | 87 | 264 | 2.0 | 4.0 | 0.00 | 0.00 | 0.00 | 34 | 1012.6 |
| 20260901214331 | 87 | 276 | 0.0 | 4.0 | 0.00 | 0.00 | 0.00 | 30 | 1012.6 |
| 20260901213849 | 88 | 276 | 1.0 | 4.0 | 0.00 | 0.00 | 0.00 | 30 | 1012.7 |
| 20260901213326 | 87 | 124 | 1.0 | 7.0 | 0.00 | 0.00 | 0.00 | 32 | 1012.7 |
| 20260901212823 | 87 | 247 | 2.0 | 7.0 | 0.00 | 0.00 | 0.00 | 32 | 1012.8 |
| 20260901212321 | 86 | 219 | 2.0 | 6.0 | 0.00 | 0.00 | 0.00 | 31 | 1012.8 |
| 20260901211822 | 86 | 158 | 2.0 | 6.0 | 0.00 | 0.00 | 0.00 | 34 | 1012.8 |
| 20260901211340 | 86 | 158 | 2.0 | 6.0 | 0.00 | 0.00 | 0.00 | 34 | 1012.9 |
| 20260901210837 | 87 | 257 | 2.0 | 6.0 | 0.00 | 0.00 | 0.00 | 33 | 1012.9 |
| 20260901210336 | 86 | 155 | 2.0 | 6.0 | 0.00 | 0.00 | 0.00 | 35 | 1012.9 |
| 20260901205858 | 86 | 215 | 4.0 | 6.0 | 0.00 | 0.00 | 0.00 | 36 | 1013.0 |
| 20260901205338 | 87 | 264 | 2.0 | 5.0 | 0.00 | 0.00 | 0.00 | 35 | 1013.0 |
| 20260901204838 | 87 | 191 | 2.0 | 4.0 | 0.00 | 0.00 | 0.00 | 32 | 1013.1 |
| 20260901204338 | 87 | 148 | 2.0 | 5.0 | 0.00 | 0.00 | 0.00 | 34 | 1013.2 |
| 20260901203900 | 87 | 214 | 3.0 | 5.0 | 0.00 | 0.00 | 0.00 | 35 | 1013.1 |
| 20260901203338 | 86 | 146 | 2.0 | 4.0 | 0.00 | 0.00 | 0.00 | 37 | 1013.2 |
| 20260901202834 | 86 | 101 | 2.0 | 7.0 | 0.00 | 0.00 | 0.00 | 36 | 1013.3 |
| 20260901202334 | 86 | 218 | 2.0 | 7.0 | 0.00 | 0.00 | 0.00 | 37 | 1013.3 |
| 20260901201856 | 86 | 193 | 2.0 | 6.0 | 0.00 | 0.00 | 0.00 | 37 | 1013.5 |
| 20260901201320 | 87 | 170 | 3.0 | 5.0 | 0.00 | 0.00 | 0.00 | 38 | 1013.5 |
| 20260901200821 | 86 | 141 | 2.0 | 4.0 | 0.00 | 0.00 | 0.00 | 41 | 1013.6 |
| 20260901195819 | 85 | 288 | 2.0 | 5.0 | 0.00 | 0.00 | 0.00 | 41 | 1013.8 |
| 20260901195319 | 86 | 176 | 1.0 | 4.0 | 0.00 | 0.00 | 0.00 | 40 | 1013.8 |
| 20260901194839 | 85 | 156 | 2.0 | 6.0 | 0.00 | 0.00 | 0.00 | 42 | 1013.9 |
| 20260901194359 | 85 | 247 | 2.0 | 6.0 | 0.00 | 0.00 | 0.00 | 41 | 1013.9 |
| 20260901193836 | 84 | 214 | 2.0 | 6.0 | 0.00 | 0.00 | 0.00 | 37 | 1013.9 |
| 20260901193357 | 84 | 162 | 2.0 | 4.0 | 0.00 | 0.00 | 0.00 | 38 | 1014.0 |
| 20260901192835 | 84 | 170 | 1.0 | 4.0 | 0.00 | 0.00 | 0.00 | 40 | 1014.0 |
| 20260901192332 | 83 | 143 | 1.0 | 6.0 | 0.00 | 0.00 | 0.00 | 39 | 1014.1 |